Time,TemperatureF,DewpointF,PressureIn,WindDirection,WindDirectionDegrees,WindSpeedMPH,WindSpeedGustMPH,Humidity,HourlyPrecipIn,Conditions,Clouds,dailyrainin,SoftwareType,DateUTC
2013-02-23 00:01:00,34.7,33.9,30.28,ESE,120,0.0,0.0,97,0.00,,,0.00,Wunderground v.1.15,2013-02-23 05:01:00,
2013-02-23 00:06:00,34.7,33.9,30.27,ESE,120,0.0,0.0,97,0.00,,,0.00,Wunderground v.1.15,2013-02-23 05:06:00,
2013-02-23 00:15:00,34.7,33.9,30.28,ESE,120,0.0,0.0,97,0.00,,,0.00,Wunderground v.1.15,2013-02-23 05:15:00,
2013-02-23 00:21:00,34.7,33.9,30.28,ESE,108,0.0,0.0,97,0.00,,,0.01,Wunderground v.1.15,2013-02-23 05:21:00,
2013-02-23 00:26:00,34.6,33.8,30.27,ESE,113,0.0,0.0,97,0.00,,,0.01,Wunderground v.1.15,2013-02-23 05:26:00,
2013-02-23 00:35:00,34.5,33.7,30.26,SE,138,0.0,0.0,97,0.06,,,0.02,Wunderground v.1.15,2013-02-23 05:35:00,
2013-02-23 00:41:00,34.5,33.7,30.27,SE,124,0.0,0.0,97,0.04,,,0.02,Wunderground v.1.15,2013-02-23 05:41:00,
2013-02-23 00:50:00,34.5,33.7,30.25,SE,124,0.0,0.0,97,0.04,,,0.03,Wunderground v.1.15,2013-02-23 05:50:00,
2013-02-23 00:56:00,34.5,33.7,30.25,SE,124,0.0,0.0,97,0.05,,,0.04,Wunderground v.1.15,2013-02-23 05:56:00,
2013-02-23 01:01:00,34.7,33.9,30.25,SE,126,0.0,0.0,97,0.10,,,0.05,Wunderground v.1.15,2013-02-23 06:01:00,
2013-02-23 01:11:00,35.2,34.4,30.24,ESE,110,0.0,0.0,97,0.10,,,0.07,Wunderground v.1.15,2013-02-23 06:11:00,
2013-02-23 01:21:00,35.0,34.2,30.24,ESE,120,0.0,0.0,97,0.05,,,0.07,Wunderground v.1.15,2013-02-23 06:21:00,
2013-02-23 01:30:00,34.7,33.9,30.23,SE,134,0.0,0.0,97,0.00,,,0.07,Wunderground v.1.15,2013-02-23 06:30:00,
2013-02-23 01:36:00,34.6,33.8,30.23,ESE,120,0.0,0.0,97,0.00,,,0.07,Wunderground v.1.15,2013-02-23 06:36:00,
2013-02-23 01:46:00,34.5,33.7,30.22,SE,127,0.0,0.0,97,0.00,,,0.07,Wunderground v.1.15,2013-02-23 06:46:00,
2013-02-23 01:51:00,34.4,33.6,30.22,SE,146,0.0,0.0,97,0.00,,,0.07,Wunderground v.1.15,2013-02-23 06:51:00,
2013-02-23 02:00:00,34.3,33.5,30.22,NE,37,0.0,0.0,97,0.00,,,0.07,Wunderground v.1.15,2013-02-23 07:00:00,
2013-02-23 02:06:00,34.3,33.5,30.22,SE,134,0.0,0.0,97,0.00,,,0.07,Wunderground v.1.15,2013-02-23 07:06:00,
2013-02-23 02:11:00,34.3,33.5,30.22,SSE,148,0.0,0.0,97,0.00,,,0.07,Wunderground v.1.15,2013-02-23 07:11:00,
2013-02-23 02:20:00,34.4,33.6,30.23,ESE,117,0.0,0.0,97,0.00,,,0.08,Wunderground v.1.15,2013-02-23 07:20:00,
2013-02-23 02:26:00,34.5,33.7,30.23,NNE,20,0.0,0.0,97,0.00,,,0.08,Wunderground v.1.15,2013-02-23 07:26:00,
2013-02-23 02:35:00,34.8,34.0,30.23,NNE,20,0.0,0.0,97,0.00,,,0.08,Wunderground v.1.15,2013-02-23 07:35:00,
2013-02-23 02:40:00,34.9,34.1,30.23,NNE,20,0.0,0.0,97,0.00,,,0.09,Wunderground v.1.15,2013-02-23 07:40:00,
2013-02-23 02:46:00,35.0,34.2,30.23,NNE,20,0.0,0.0,97,0.00,,,0.09,Wunderground v.1.15,2013-02-23 07:46:00,
2013-02-23 02:56:00,35.0,34.2,30.23,NNE,20,0.0,0.0,97,0.06,,,0.10,Wunderground v.1.15,2013-02-23 07:56:00,
2013-02-23 03:01:00,35.1,34.3,30.23,NNE,20,0.0,0.0,97,0.06,,,0.11,Wunderground v.1.15,2013-02-23 08:01:00,
2013-02-23 03:11:00,35.1,34.3,30.22,NW,322,0.0,1.0,97,0.08,,,0.12,Wunderground v.1.15,2013-02-23 08:11:00,
2013-02-23 03:16:00,35.2,34.4,30.21,NW,322,0.0,1.0,97,0.08,,,0.13,Wunderground v.1.15,2013-02-23 08:16:00,
2013-02-23 03:21:00,35.3,34.5,30.20,NW,322,0.0,0.0,97,0.06,,,0.13,Wunderground v.1.15,2013-02-23 08:21:00,
2013-02-23 03:30:00,35.4,34.6,30.19,NW,322,0.0,0.0,97,0.00,,,0.14,Wunderground v.1.15,2013-02-23 08:30:00,
2013-02-23 03:36:00,35.5,34.7,30.18,NW,322,0.0,0.0,97,0.00,,,0.14,Wunderground v.1.15,2013-02-23 08:36:00,
2013-02-23 03:46:00,35.8,35.0,30.18,NW,322,0.0,0.0,97,0.00,,,0.14,Wunderground v.1.15,2013-02-23 08:46:00,
2013-02-23 03:56:00,36.1,35.3,30.17,NW,319,0.0,0.0,97,0.00,,,0.14,Wunderground v.1.15,2013-02-23 08:56:00,
2013-02-23 04:06:00,35.8,35.0,30.18,WNW,285,0.0,0.0,97,0.00,,,0.15,Wunderground v.1.15,2013-02-23 09:06:00,
2013-02-23 04:11:00,35.8,35.0,30.19,WNW,285,0.0,0.0,97,0.00,,,0.15,Wunderground v.1.15,2013-02-23 09:11:00,
2013-02-23 04:16:00,35.9,35.1,30.19,WNW,285,0.0,0.0,97,0.05,,,0.16,Wunderground v.1.15,2013-02-23 09:16:00,
2013-02-23 04:26:00,36.0,35.2,30.18,SW,231,0.0,0.0,97,0.09,,,0.17,Wunderground v.1.15,2013-02-23 09:26:00,
2013-02-23 04:31:00,36.3,35.5,30.19,SW,214,0.0,0.0,97,0.10,,,0.18,Wunderground v.1.15,2013-02-23 09:31:00,
2013-02-23 04:36:00,36.4,35.6,30.18,SW,215,0.0,0.0,97,0.07,,,0.18,Wunderground v.1.15,2013-02-23 09:36:00,
2013-02-23 04:45:00,36.5,35.7,30.16,SSE,166,0.0,0.0,97,0.05,,,0.19,Wunderground v.1.15,2013-02-23 09:45:00,
2013-02-23 04:51:00,36.7,35.9,30.15,SSE,155,0.0,0.0,97,0.05,,,0.19,Wunderground v.1.15,2013-02-23 09:51:00,
2013-02-23 04:56:00,36.6,35.8,30.14,SSE,155,0.0,0.0,97,0.04,,,0.19,Wunderground v.1.15,2013-02-23 09:56:00,
2013-02-23 05:05:00,36.5,35.7,30.13,South,169,0.0,0.0,97,0.00,,,0.19,Wunderground v.1.15,2013-02-23 10:05:00,
2013-02-23 05:11:00,36.5,35.7,30.13,SW,225,0.0,0.0,97,0.00,,,0.19,Wunderground v.1.15,2013-02-23 10:11:00,
2013-02-23 05:20:00,37.1,36.3,30.14,SW,224,0.0,0.0,97,0.00,,,0.19,Wunderground v.1.15,2013-02-23 10:20:00,
2013-02-23 05:26:00,37.1,36.3,30.15,NNW,336,0.0,0.0,97,0.00,,,0.20,Wunderground v.1.15,2013-02-23 10:26:00,
2013-02-23 05:31:00,37.4,36.6,30.15,NW,325,0.0,0.0,97,0.00,,,0.20,Wunderground v.1.15,2013-02-23 10:31:00,
2013-02-23 05:41:00,37.9,37.4,30.15,South,184,0.0,0.0,98,0.05,,,0.21,Wunderground v.1.15,2013-02-23 10:41:00,
2013-02-23 05:46:00,38.0,37.5,30.14,NNW,335,0.0,0.0,98,0.08,,,0.22,Wunderground v.1.15,2013-02-23 10:46:00,
2013-02-23 05:51:00,38.1,37.6,30.14,SSW,203,0.0,0.0,98,0.07,,,0.22,Wunderground v.1.15,2013-02-23 10:51:00,
2013-02-23 06:01:00,38.4,37.9,30.13,SSW,193,0.0,0.0,98,0.10,,,0.24,Wunderground v.1.15,2013-02-23 11:01:00,
2013-02-23 06:06:00,38.5,38.0,30.13,ESE,105,0.0,0.0,98,0.13,,,0.25,Wunderground v.1.15,2013-02-23 11:06:00,
2013-02-23 06:16:00,38.3,37.8,30.14,ESE,110,0.0,0.0,98,0.11,,,0.27,Wunderground v.1.15,2013-02-23 11:16:00,
2013-02-23 06:21:00,38.2,37.7,30.13,ESE,110,0.0,0.0,98,0.07,,,0.27,Wunderground v.1.15,2013-02-23 11:21:00,
2013-02-23 06:30:00,38.5,38.0,30.13,NW,310,0.0,0.0,98,0.06,,,0.28,Wunderground v.1.15,2013-02-23 11:30:00,
2013-02-23 06:36:00,38.8,38.3,30.12,SW,236,0.0,0.0,98,0.04,,,0.28,Wunderground v.1.15,2013-02-23 11:36:00,
2013-02-23 06:45:00,39.3,38.8,30.13,WNW,295,1.0,2.0,98,0.00,,,0.28,Wunderground v.1.15,2013-02-23 11:45:00,
2013-02-23 06:51:00,39.3,38.8,30.13,West,280,1.0,1.0,98,0.00,,,0.28,Wunderground v.1.15,2013-02-23 11:51:00,
2013-02-23 07:00:00,39.5,39.0,30.13,SW,235,0.0,0.0,98,0.00,,,0.28,Wunderground v.1.15,2013-02-23 12:00:00,
2013-02-23 07:05:00,40.0,39.5,30.13,SW,236,0.0,1.0,98,0.00,,,0.28,Wunderground v.1.15,2013-02-23 12:05:00,
2013-02-23 07:11:00,39.9,39.4,30.14,West,266,0.0,0.0,98,0.00,,,0.28,Wunderground v.1.15,2013-02-23 12:11:00,
2013-02-23 07:16:00,39.3,38.8,30.14,NW,310,1.0,1.0,98,0.00,,,0.28,Wunderground v.1.15,2013-02-23 12:16:00,
2013-02-23 07:26:00,38.9,38.4,30.14,West,272,1.0,1.0,98,0.00,,,0.28,Wunderground v.1.15,2013-02-23 12:26:00,
2013-02-23 07:31:00,39.2,38.7,30.14,WSW,244,0.0,0.0,98,0.00,,,0.29,Wunderground v.1.15,2013-02-23 12:31:00,
2013-02-23 07:40:00,39.7,39.2,30.13,WSW,245,0.0,0.0,98,0.00,,,0.29,Wunderground v.1.15,2013-02-23 12:40:00,
2013-02-23 07:46:00,40.1,39.6,30.13,WSW,245,0.0,0.0,98,0.00,,,0.29,Wunderground v.1.15,2013-02-23 12:46:00,
2013-02-23 07:51:00,40.7,40.2,30.13,WSW,245,0.0,0.0,98,0.00,,,0.29,Wunderground v.1.15,2013-02-23 12:51:00,
2013-02-23 08:00:00,41.3,40.8,30.13,WSW,245,0.0,0.0,98,0.00,,,0.29,Wunderground v.1.15,2013-02-23 13:00:00,
2013-02-23 08:06:00,41.4,40.9,30.13,WSW,246,0.0,0.0,98,0.00,,,0.30,Wunderground v.1.15,2013-02-23 13:06:00,
2013-02-23 08:15:00,41.5,41.0,30.13,ESE,110,0.0,0.0,98,0.00,,,0.30,Wunderground v.1.15,2013-02-23 13:15:00,
2013-02-23 08:20:00,41.4,40.9,30.13,ESE,110,0.0,0.0,98,0.00,,,0.30,Wunderground v.1.15,2013-02-23 13:20:00,
2013-02-23 08:26:00,41.7,41.2,30.13,WSW,240,0.0,0.0,98,0.00,,,0.30,Wunderground v.1.15,2013-02-23 13:26:00,
2013-02-23 08:35:00,40.9,40.4,30.14,WNW,289,0.0,0.0,98,0.00,,,0.30,Wunderground v.1.15,2013-02-23 13:35:00,
2013-02-23 08:41:00,40.7,40.2,30.14,SW,217,0.0,0.0,98,0.00,,,0.30,Wunderground v.1.15,2013-02-23 13:41:00,
2013-02-23 08:46:00,40.8,40.3,30.14,West,263,0.0,0.0,98,0.00,,,0.30,Wunderground v.1.15,2013-02-23 13:46:00,
2013-02-23 08:55:00,41.2,40.7,30.14,WNW,285,0.0,0.0,98,0.00,,,0.30,Wunderground v.1.15,2013-02-23 13:55:00,
2013-02-23 09:01:00,41.6,41.1,30.15,SSE,155,0.0,0.0,98,0.00,,,0.30,Wunderground v.1.15,2013-02-23 14:01:00,
2013-02-23 09:10:00,41.7,41.2,30.15,SSE,155,0.0,0.0,98,0.00,,,0.31,Wunderground v.1.15,2013-02-23 14:10:00,
2013-02-23 09:16:00,41.6,41.1,30.15,SSE,153,0.0,0.0,98,0.00,,,0.31,Wunderground v.1.15,2013-02-23 14:16:00,
2013-02-23 09:21:00,41.7,41.2,30.14,SSE,154,0.0,0.0,98,0.00,,,0.31,Wunderground v.1.15,2013-02-23 14:21:00,
2013-02-23 09:30:00,41.4,40.9,30.14,SE,136,0.0,0.0,98,0.00,,,0.31,Wunderground v.1.15,2013-02-23 14:30:00,
2013-02-23 09:36:00,41.5,41.0,30.14,SE,136,0.0,0.0,98,0.00,,,0.31,Wunderground v.1.15,2013-02-23 14:36:00,
2013-02-23 09:41:00,41.7,41.2,30.14,SE,136,0.0,0.0,98,0.00,,,0.31,Wunderground v.1.15,2013-02-23 14:41:00,
2013-02-23 09:51:00,42.0,41.5,30.13,SE,136,0.0,0.0,98,0.00,,,0.32,Wunderground v.1.15,2013-02-23 14:51:00,
2013-02-23 09:56:00,42.2,41.7,30.12,SE,124,0.0,0.0,98,0.00,,,0.32,Wunderground v.1.15,2013-02-23 14:56:00,
2013-02-23 10:05:00,43.2,42.7,30.12,ESE,122,0.0,0.0,98,0.00,,,0.32,Wunderground v.1.15,2013-02-23 15:05:00,
2013-02-23 10:11:00,43.5,43.0,30.11,East,98,0.0,0.0,98,0.00,,,0.32,Wunderground v.1.15,2013-02-23 15:11:00,
2013-02-23 10:16:00,43.6,43.1,30.12,ESE,113,0.0,0.0,98,0.00,,,0.32,Wunderground v.1.15,2013-02-23 15:16:00,
2013-02-23 10:26:00,43.8,43.3,30.12,SSE,148,0.0,0.0,98,0.00,,,0.32,Wunderground v.1.15,2013-02-23 15:26:00,
2013-02-23 10:36:00,44.2,43.7,30.12,ESE,115,0.0,0.0,98,0.00,,,0.32,Wunderground v.1.15,2013-02-23 15:36:00,
2013-02-23 10:45:00,44.9,44.4,30.12,East,91,0.0,0.0,98,0.00,,,0.32,Wunderground v.1.15,2013-02-23 15:45:00,
2013-02-23 10:50:00,45.2,44.7,30.13,East,94,0.0,0.0,98,0.00,,,0.32,Wunderground v.1.15,2013-02-23 15:50:00,
2013-02-23 10:56:00,45.4,44.9,30.13,NE,34,0.0,0.0,98,0.00,,,0.32,Wunderground v.1.15,2013-02-23 15:56:00,
2013-02-23 11:01:00,45.6,45.1,30.12,NE,36,0.0,0.0,98,0.00,,,0.32,Wunderground v.1.15,2013-02-23 16:01:00,
2013-02-23 11:11:00,45.6,45.1,30.13,SE,134,0.0,0.0,98,0.00,,,0.32,Wunderground v.1.15,2013-02-23 16:11:00,
2013-02-23 11:16:00,45.5,45.0,30.12,SE,134,0.0,0.0,98,0.00,,,0.32,Wunderground v.1.15,2013-02-23 16:16:00,
2013-02-23 11:25:00,45.4,44.9,30.12,SE,140,0.0,0.0,98,0.00,,,0.32,Wunderground v.1.15,2013-02-23 16:25:00,
2013-02-23 11:31:00,45.5,45.0,30.12,SE,136,0.0,0.0,98,0.00,,,0.32,Wunderground v.1.15,2013-02-23 16:31:00,
2013-02-23 11:36:00,45.8,45.3,30.12,SE,136,0.0,0.0,98,0.00,,,0.32,Wunderground v.1.15,2013-02-23 16:36:00,
2013-02-23 11:45:00,46.0,45.5,30.12,SE,136,0.0,0.0,98,0.00,,,0.32,Wunderground v.1.15,2013-02-23 16:45:00,
2013-02-23 11:51:00,46.2,45.7,30.12,SE,136,0.0,0.0,98,0.00,,,0.32,Wunderground v.1.15,2013-02-23 16:51:00,
2013-02-23 11:56:00,46.5,46.0,30.11,SE,136,0.0,0.0,98,0.00,,,0.32,Wunderground v.1.15,2013-02-23 16:56:00,
2013-02-23 12:05:00,47.1,46.6,30.11,SE,134,0.0,0.0,98,0.00,,,0.32,Wunderground v.1.15,2013-02-23 17:05:00,
2013-02-23 12:10:00,47.4,46.9,30.11,East,91,0.0,0.0,98,0.00,,,0.32,Wunderground v.1.15,2013-02-23 17:10:00,
2013-02-23 12:16:00,47.5,47.0,30.10,ESE,114,0.0,0.0,98,0.00,,,0.32,Wunderground v.1.15,2013-02-23 17:16:00,
2013-02-23 12:25:00,48.1,47.6,30.10,ESE,117,0.0,0.0,98,0.00,,,0.32,Wunderground v.1.15,2013-02-23 17:25:00,
2013-02-23 12:31:00,48.2,47.7,30.09,ESE,117,0.0,0.0,98,0.00,,,0.32,Wunderground v.1.15,2013-02-23 17:31:00,
2013-02-23 12:36:00,48.2,47.4,30.09,SE,145,0.0,0.0,97,0.00,,,0.32,Wunderground v.1.15,2013-02-23 17:36:00,
2013-02-23 12:41:00,48.1,47.3,30.08,SSE,152,0.0,0.0,97,0.00,,,0.32,Wunderground v.1.15,2013-02-23 17:41:00,
2013-02-23 12:50:00,48.6,47.8,30.08,SE,143,0.0,0.0,97,0.00,,,0.32,Wunderground v.1.15,2013-02-23 17:50:00,
2013-02-23 12:56:00,48.8,48.0,30.07,SE,127,0.0,0.0,97,0.00,,,0.32,Wunderground v.1.15,2013-02-23 17:56:00,
2013-02-23 13:05:00,48.9,48.1,30.08,ENE,64,0.0,0.0,97,0.00,,,0.32,Wunderground v.1.15,2013-02-23 18:05:00,
2013-02-23 13:11:00,48.9,48.1,30.08,SE,127,0.0,0.0,97,0.00,,,0.32,Wunderground v.1.15,2013-02-23 18:11:00,
2013-02-23 13:16:00,49.1,48.3,30.07,South,181,0.0,0.0,97,0.00,,,0.32,Wunderground v.1.15,2013-02-23 18:16:00,
2013-02-23 13:21:00,49.4,48.6,30.07,SE,135,0.0,0.0,97,0.00,,,0.32,Wunderground v.1.15,2013-02-23 18:21:00,
2013-02-23 13:30:00,49.5,48.7,30.07,SE,125,0.0,0.0,97,0.00,,,0.32,Wunderground v.1.15,2013-02-23 18:30:00,
2013-02-23 13:36:00,49.8,49.0,30.07,SE,124,0.0,0.0,97,0.00,,,0.32,Wunderground v.1.15,2013-02-23 18:36:00,
2013-02-23 13:45:00,49.8,48.7,30.06,North,9,0.0,0.0,96,0.00,,,0.32,Wunderground v.1.15,2013-02-23 18:45:00,
2013-02-23 13:50:00,49.9,48.8,30.06,ESE,106,0.0,0.0,96,0.00,,,0.32,Wunderground v.1.15,2013-02-23 18:50:00,
2013-02-23 13:56:00,50.3,49.2,30.06,ESE,110,0.0,0.0,96,0.00,,,0.32,Wunderground v.1.15,2013-02-23 18:56:00,
2013-02-23 14:01:00,50.4,49.0,30.06,ESE,107,0.0,0.0,95,0.00,,,0.32,Wunderground v.1.15,2013-02-23 19:01:00,
2013-02-23 14:10:00,50.5,49.1,30.06,ESE,121,0.0,0.0,95,0.00,,,0.32,Wunderground v.1.15,2013-02-23 19:10:00,
2013-02-23 14:16:00,50.4,48.7,30.06,ESE,115,0.0,0.0,94,0.00,,,0.32,Wunderground v.1.15,2013-02-23 19:16:00,
2013-02-23 14:25:00,50.7,49.0,30.06,ESE,115,0.0,0.0,94,0.00,,,0.32,Wunderground v.1.15,2013-02-23 19:25:00,
2013-02-23 14:30:00,50.7,49.0,30.06,ESE,115,0.0,0.0,94,0.00,,,0.32,Wunderground v.1.15,2013-02-23 19:30:00,
2013-02-23 14:36:00,50.6,48.7,30.05,ESE,115,0.0,0.0,93,0.00,,,0.32,Wunderground v.1.15,2013-02-23 19:36:00,
2013-02-23 14:41:00,50.7,49.0,30.05,ESE,115,0.0,0.0,94,0.00,,,0.32,Wunderground v.1.15,2013-02-23 19:41:00,
2013-02-23 14:50:00,50.6,48.4,30.05,East,97,0.0,0.0,92,0.00,,,0.32,Wunderground v.1.15,2013-02-23 19:50:00,
2013-02-23 14:56:00,50.7,48.5,30.05,East,94,0.0,0.0,92,0.00,,,0.32,Wunderground v.1.15,2013-02-23 19:56:00,
2013-02-23 15:05:00,50.5,47.7,30.05,NNE,26,0.0,0.0,90,0.00,,,0.32,Wunderground v.1.15,2013-02-23 20:05:00,
2013-02-23 15:10:00,50.7,48.2,30.05,NNW,340,0.0,0.0,91,0.00,,,0.32,Wunderground v.1.15,2013-02-23 20:10:00,
2013-02-23 15:16:00,50.9,48.1,30.05,NNE,15,0.0,0.0,90,0.00,,,0.32,Wunderground v.1.15,2013-02-23 20:16:00,
2013-02-23 15:21:00,51.1,48.6,30.04,SE,143,0.0,0.0,91,0.00,,,0.32,Wunderground v.1.15,2013-02-23 20:21:00,
2013-02-23 15:30:00,51.4,48.9,30.04,SE,143,0.0,0.0,91,0.00,,,0.32,Wunderground v.1.15,2013-02-23 20:30:00,
2013-02-23 15:36:00,51.3,48.8,30.03,SE,143,0.0,0.0,91,0.00,,,0.32,Wunderground v.1.15,2013-02-23 20:36:00,
2013-02-23 15:45:00,51.5,49.0,30.04,SE,142,0.0,0.0,91,0.00,,,0.32,Wunderground v.1.15,2013-02-23 20:45:00,
2013-02-23 15:50:00,51.6,48.8,30.04,SE,142,0.0,0.0,90,0.00,,,0.32,Wunderground v.1.15,2013-02-23 20:50:00,
2013-02-23 15:56:00,51.7,49.2,30.03,SE,141,0.0,0.0,91,0.00,,,0.32,Wunderground v.1.15,2013-02-23 20:56:00,
2013-02-23 16:01:00,51.7,48.9,30.04,SE,142,0.0,0.0,90,0.00,,,0.32,Wunderground v.1.15,2013-02-23 21:01:00,
2013-02-23 16:10:00,51.5,48.7,30.04,SE,142,0.0,0.0,90,0.00,,,0.32,Wunderground v.1.15,2013-02-23 21:10:00,
2013-02-23 16:16:00,51.4,48.6,30.04,SE,142,0.0,0.0,90,0.00,,,0.32,Wunderground v.1.15,2013-02-23 21:16:00,
2013-02-23 16:21:00,51.3,48.5,30.04,SE,142,0.0,0.0,90,0.00,,,0.32,Wunderground v.1.15,2013-02-23 21:21:00,
2013-02-23 16:30:00,51.1,48.6,30.03,ESE,115,0.0,0.0,91,0.00,,,0.32,Wunderground v.1.15,2013-02-23 21:30:00,
2013-02-23 16:36:00,51.1,48.6,30.02,ESE,115,0.0,0.0,91,0.00,,,0.32,Wunderground v.1.15,2013-02-23 21:36:00,
2013-02-23 16:41:00,51.0,48.2,30.03,ESE,114,0.0,0.0,90,0.00,,,0.32,Wunderground v.1.15,2013-02-23 21:41:00,
2013-02-23 16:50:00,50.6,48.1,30.02,ESE,115,0.0,0.0,91,0.00,,,0.32,Wunderground v.1.15,2013-02-23 21:50:00,
2013-02-23 16:56:00,50.3,47.8,30.02,ESE,115,0.0,0.0,91,0.00,,,0.32,Wunderground v.1.15,2013-02-23 21:56:00,
2013-02-23 17:01:00,50.2,47.7,30.02,ESE,115,0.0,0.0,91,0.00,,,0.32,Wunderground v.1.15,2013-02-23 22:01:00,
2013-02-23 17:11:00,49.8,47.3,30.01,ESE,117,0.0,0.0,91,0.00,,,0.32,Wunderground v.1.15,2013-02-23 22:11:00,
2013-02-23 17:16:00,49.7,47.2,30.02,ESE,117,0.0,0.0,91,0.00,,,0.32,Wunderground v.1.15,2013-02-23 22:16:00,
2013-02-23 17:26:00,49.3,47.1,30.01,ESE,117,0.0,0.0,92,0.00,,,0.32,Wunderground v.1.15,2013-02-23 22:26:00,
2013-02-23 17:31:00,49.2,47.0,30.01,ESE,117,0.0,0.0,92,0.00,,,0.32,Wunderground v.1.15,2013-02-23 22:31:00,
2013-02-23 17:40:00,49.2,47.3,30.01,ESE,117,0.0,0.0,93,0.00,,,0.32,Wunderground v.1.15,2013-02-23 22:40:00,
2013-02-23 17:45:00,49.3,47.6,30.00,ESE,117,0.0,0.0,94,0.00,,,0.32,Wunderground v.1.15,2013-02-23 22:45:00,
2013-02-23 17:51:00,49.2,47.5,30.00,ESE,117,0.0,0.0,94,0.00,,,0.32,Wunderground v.1.15,2013-02-23 22:51:00,
2013-02-23 18:00:00,49.2,47.5,30.00,ESE,117,0.0,0.0,94,0.00,,,0.32,Wunderground v.1.15,2013-02-23 23:00:00,
2013-02-23 18:05:00,49.1,47.7,30.00,ESE,117,0.0,0.0,95,0.00,,,0.32,Wunderground v.1.15,2013-02-23 23:05:00,
2013-02-23 18:11:00,49.1,47.7,30.00,ESE,117,0.0,0.0,95,0.00,,,0.32,Wunderground v.1.15,2013-02-23 23:11:00,
2013-02-23 18:16:00,49.0,47.6,29.99,SE,136,0.0,0.0,95,0.00,,,0.32,Wunderground v.1.15,2013-02-23 23:16:00,
2013-02-23 18:25:00,48.8,47.4,29.99,SE,136,0.0,0.0,95,0.00,,,0.32,Wunderground v.1.15,2013-02-23 23:25:00,
2013-02-23 18:31:00,48.8,47.4,29.99,SE,136,0.0,0.0,95,0.00,,,0.32,Wunderground v.1.15,2013-02-23 23:31:00,
2013-02-23 18:36:00,48.6,47.2,29.99,SE,136,0.0,0.0,95,0.00,,,0.32,Wunderground v.1.15,2013-02-23 23:36:00,
2013-02-23 18:46:00,48.7,47.6,30.00,ESE,122,0.0,0.0,96,0.00,,,0.32,Wunderground v.1.15,2013-02-23 23:46:00,
2013-02-23 18:51:00,48.7,47.6,30.00,ESE,122,0.0,0.0,96,0.00,,,0.32,Wunderground v.1.15,2013-02-23 23:51:00,
2013-02-23 18:56:00,48.6,47.5,30.00,ESE,123,0.0,0.0,96,0.00,,,0.32,Wunderground v.1.15,2013-02-23 23:56:00,
2013-02-23 19:05:00,48.3,47.2,30.00,SE,124,0.0,0.0,96,0.00,,,0.32,Wunderground v.1.15,2013-02-24 00:05:00,
2013-02-23 19:11:00,48.2,47.1,30.00,SE,124,0.0,0.0,96,0.00,,,0.32,Wunderground v.1.15,2013-02-24 00:11:00,
2013-02-23 19:20:00,47.9,46.8,30.00,SE,124,0.0,0.0,96,0.00,,,0.32,Wunderground v.1.15,2013-02-24 00:20:00,
2013-02-23 19:25:00,47.9,46.8,30.00,SE,124,0.0,0.0,96,0.00,,,0.32,Wunderground v.1.15,2013-02-24 00:25:00,
2013-02-23 19:31:00,47.9,46.8,30.00,SE,124,0.0,0.0,96,0.00,,,0.32,Wunderground v.1.15,2013-02-24 00:31:00,
2013-02-23 19:36:00,47.7,46.6,29.99,SE,124,0.0,0.0,96,0.00,,,0.32,Wunderground v.1.15,2013-02-24 00:36:00,
2013-02-23 19:45:00,47.5,46.4,30.00,NNE,31,0.0,0.0,96,0.00,,,0.32,Wunderground v.1.15,2013-02-24 00:45:00,
2013-02-23 19:51:00,47.5,46.4,30.00,NNE,31,0.0,0.0,96,0.00,,,0.32,Wunderground v.1.15,2013-02-24 00:51:00,
2013-02-23 20:00:00,47.7,46.9,30.01,NNE,32,0.0,0.0,97,0.00,,,0.32,Wunderground v.1.15,2013-02-24 01:00:00,
2013-02-23 20:05:00,47.8,47.0,30.00,NNE,32,0.0,0.0,97,0.00,,,0.32,Wunderground v.1.15,2013-02-24 01:05:00,
2013-02-23 20:11:00,47.9,47.1,30.00,NNE,32,0.0,0.0,97,0.00,,,0.32,Wunderground v.1.15,2013-02-24 01:11:00,
2013-02-23 20:16:00,47.9,47.1,29.99,NNE,32,0.0,0.0,97,0.00,,,0.32,Wunderground v.1.15,2013-02-24 01:16:00,
2013-02-23 20:25:00,47.7,46.6,30.00,NNE,32,0.0,0.0,96,0.00,,,0.32,Wunderground v.1.15,2013-02-24 01:25:00,
2013-02-23 20:31:00,47.6,46.5,29.99,NNE,31,0.0,0.0,96,0.00,,,0.32,Wunderground v.1.15,2013-02-24 01:31:00,
2013-02-23 20:36:00,47.6,46.5,30.00,NNE,32,0.0,0.0,96,0.00,,,0.32,Wunderground v.1.15,2013-02-24 01:36:00,
2013-02-23 20:45:00,47.8,47.0,30.01,NNE,32,0.0,0.0,97,0.00,,,0.32,Wunderground v.1.15,2013-02-24 01:45:00,
2013-02-23 20:50:00,47.9,47.1,30.00,NNE,31,0.0,0.0,97,0.00,,,0.32,Wunderground v.1.15,2013-02-24 01:50:00,
2013-02-23 20:56:00,47.9,47.1,30.00,NNE,32,0.0,0.0,97,0.00,,,0.32,Wunderground v.1.15,2013-02-24 01:56:00,
2013-02-23 21:05:00,47.9,47.1,30.00,NNE,32,0.0,0.0,97,0.00,,,0.32,Wunderground v.1.15,2013-02-24 02:05:00,
2013-02-23 21:11:00,47.8,47.0,30.01,NNE,31,0.0,0.0,97,0.00,,,0.32,Wunderground v.1.15,2013-02-24 02:11:00,
2013-02-23 21:16:00,47.8,47.0,30.00,NNE,32,0.0,0.0,97,0.00,,,0.32,Wunderground v.1.15,2013-02-24 02:16:00,
2013-02-23 21:25:00,47.8,47.0,30.00,NNE,32,0.0,0.0,97,0.00,,,0.32,Wunderground v.1.15,2013-02-24 02:25:00,
2013-02-23 21:30:00,47.8,47.0,30.00,NNE,31,0.0,0.0,97,0.00,,,0.32,Wunderground v.1.15,2013-02-24 02:30:00,
2013-02-23 21:36:00,47.7,46.9,30.01,NNE,31,0.0,0.0,97,0.00,,,0.32,Wunderground v.1.15,2013-02-24 02:36:00,
2013-02-23 21:45:00,47.6,46.8,30.00,NNE,31,0.0,0.0,97,0.00,,,0.32,Wunderground v.1.15,2013-02-24 02:45:00,
2013-02-23 21:51:00,47.4,46.6,30.00,SSE,160,0.0,0.0,97,0.00,,,0.32,Wunderground v.1.15,2013-02-24 02:51:00,
2013-02-23 21:56:00,47.4,46.6,30.00,SSE,160,0.0,0.0,97,0.00,,,0.32,Wunderground v.1.15,2013-02-24 02:56:00,
2013-02-23 22:05:00,47.1,46.3,30.00,SSE,160,0.0,0.0,97,0.00,,,0.32,Wunderground v.1.15,2013-02-24 03:05:00,
2013-02-23 22:11:00,47.0,46.2,30.00,SSE,160,0.0,0.0,97,0.00,,,0.32,Wunderground v.1.15,2013-02-24 03:11:00,
2013-02-23 22:16:00,46.9,46.1,30.00,SSE,161,0.0,0.0,97,0.00,,,0.32,Wunderground v.1.15,2013-02-24 03:16:00,
2013-02-23 22:25:00,46.7,45.9,30.00,WSW,246,0.0,0.0,97,0.00,,,0.32,Wunderground v.1.15,2013-02-24 03:25:00,
2013-02-23 22:31:00,46.6,45.8,30.00,WSW,246,0.0,0.0,97,0.00,,,0.32,Wunderground v.1.15,2013-02-24 03:31:00,
2013-02-23 22:36:00,46.5,45.7,30.00,WSW,246,0.0,0.0,97,0.00,,,0.32,Wunderground v.1.15,2013-02-24 03:36:00,
2013-02-23 22:45:00,46.4,45.6,30.00,WSW,245,0.0,0.0,97,0.00,,,0.32,Wunderground v.1.15,2013-02-24 03:45:00,
2013-02-23 22:51:00,46.3,45.5,30.00,South,170,0.0,0.0,97,0.00,,,0.32,Wunderground v.1.15,2013-02-24 03:51:00,
2013-02-23 22:56:00,46.3,45.5,30.00,South,170,0.0,0.0,97,0.00,,,0.32,Wunderground v.1.15,2013-02-24 03:56:00,
2013-02-23 23:06:00,45.9,45.1,30.00,NW,307,0.0,0.0,97,0.00,,,0.32,Wunderground v.1.15,2013-02-24 04:06:00,
2013-02-23 23:11:00,45.8,45.0,30.00,NW,322,0.0,0.0,97,0.00,,,0.32,Wunderground v.1.15,2013-02-24 04:11:00,
2013-02-23 23:20:00,45.6,44.8,30.00,NNW,328,0.0,1.0,97,0.00,,,0.32,Wunderground v.1.15,2013-02-24 04:20:00,
2013-02-23 23:25:00,45.6,44.8,30.00,NNW,343,0.0,1.0,97,0.00,,,0.32,Wunderground v.1.15,2013-02-24 04:25:00,
2013-02-23 23:31:00,45.2,44.4,30.00,NNW,338,0.0,0.0,97,0.00,,,0.32,Wunderground v.1.15,2013-02-24 04:31:00,
2013-02-23 23:40:00,44.1,43.0,30.00,North,352,1.0,3.0,96,0.00,,,0.32,Wunderground v.1.15,2013-02-24 04:40:00,
2013-02-23 23:46:00,44.0,42.4,30.00,NNW,340,2.0,3.0,94,0.00,,,0.32,Wunderground v.1.15,2013-02-24 04:46:00,
2013-02-23 23:51:00,44.5,41.2,30.01,NNW,333,2.0,2.0,88,0.00,,,0.32,Wunderground v.1.15,2013-02-24 04:51:00,
2013-02-23 23:56:00,44.5,40.9,30.01,WNW,302,1.0,2.0,87,0.00,,,0.32,Wunderground v.1.15,2013-02-24 04:56:00,